Starlink 11467

operational
NORAD ID: 62068 Int'l Des: 2024-217 Owner: SPXS Country: US Constellation: starlink
LEOCIRCULAR

关于 Starlink 11467

正在加载描述...

实时位置

正在加载3D地球...

即将过境

高度历史

Altitude vs Time

uPlot chart will show altitude changes over time

两行轨道根数

1 62068U 24217M 25258.59160666 .00317470 00000-0 25149-2 0 9994
2 62068 53.1563 214.3326 0002306 75.5944 284.5329 15.69819280 47679
Epoch: Sep 15, 2025 • Age: 10 hours

当前状态

高度 377.7 km
速度 7.68 km/s
星下点 -51.15°S, 140.75°E
发射日期 Nov 24, 2024
运行时间 0.8 years
类型 internet

技术详情

分类 Payload
质量 960.00 kg
干质量 910.00 kg
总质量 960.00 kg
长度 0.30 m
直径 4.10 m
跨度 29.00 m
形状 Box + pan
制造商 SPXS
平台类型 Starlink V2MD
阶段状态 In Orbit
所有者/国家 SPXS/US

大型星座

Loading constellations...